C/2005 K2 - A (LINEAR)

Epoch 2005 July 9.0 TT = JDT 2453560.5  

T 2005 July 5.37491 TT                                  Nakano

q   0.5447187            (2000.0)            P               Q

z  -0.0020781      Peri.  216.52186     -0.65034041     +0.29563254

 +/-0.0001597      Node    45.68740     -0.21639934     +0.81089821

e   1.0011320      Incl.  102.05638     -0.72816803     -0.50502029

From 146 observations 2005 May 19-June 21, mean residual 0".98.

   (1/a)org.= -0.001554, (1/a)fut.= -0.002016 (+/-0.000160), Q= 4.

Residuals in seconds of arc 

2005/                     050531 360  0.2-  0.3-    050613 J76  0.8+  2.1+  

050519 704  0.9-  1.9+    050531 349  0.8-  1.1+    050613 J76  0.4+  0.3-  

050519 704  0.0   0.4+    050531 349  0.6-  1.4+    050613 J76  0.1+  2.1+  

050519 704  2.0-  1.1-    050531 349  0.3-  1.4+    050614 J97 (0.2+  2.6+) 

050519 704  0.3-  0.0     050602 213  0.8-  0.3-    050615 595  2.2+  2.2-  

050520 H06 (1.2-  2.7+)   050602 213  0.6-  0.5-    050615 595  1.2+  0.7+  

050520 H06 (4.4-  0.7+)   050602 213  0.6-  0.6-    050615 595  0.8+  0.1+  

050520 H06  0.8+  0.9-    050602 213  0.7-  0.6-    050615 J76  0.3+  0.1-  

050520 H06  0.6-  0.0     050602 J97 (0.2-  4.8+)   050615 J76  0.2-  0.1+  

050520 H06  1.0+  0.6+    050605 360  0.4-  0.6-    050615 J76  0.9-  0.0   

050520 H06 (4.3+  1.2-)   050605 340  1.0+  0.1-    050616 J76  0.6-  1.0-  

050520 704  1.3-  0.4-    050605 340  1.1+  1.0+    050616 J76  1.4-  1.0-  

050520 704  2.4-  0.4-    050605 360  0.0   0.4-    050616 J76  1.2-  0.6-  

050520 704 (3.0-  0.2-)   050605 340  1.1+  1.3+    050616 J78  0.2-  0.8-  

050520 704 (5.1-  0.5-)   050605 360  0.4-  0.8-    050616 J78  0.4-  1.4-  

050520 673 (2.5+  0.0 )   050605 J97  0.3-  1.9+    050616 J78  1.5-  0.7-  

050520 704 (3.6-  0.5-)   050605 J97  1.0+  1.6-    050616 511  0.1-  1.1-  

050520 673  2.0+  0.2+    050607 213  0.5-  0.3-    050616 511  0.2-  1.1-  

050520 673 (3.8+  4.4+)   050607 213  0.6-  0.3-    050616 511  0.6-  1.0-  

050520 673 (4.6+  6.0+)   050607 213  0.6-  0.5-    050616 213  1.7+  0.2-  

050520 673 (4.6+  4.9+)   050608 213  0.5+  0.1+    050616 213  1.7+  0.1-  

050520 673 (4.2+  6.0+)   050608 213  0.6+  0.4-    050617 157  1.6-  1.2-  

050520 557  0.4-  0.3+    050608 213  1.2+  0.2-    050617 J78  0.1-  0.1+  

050520 557  0.3-  0.7+    050609 J76  0.2-  1.6-    050617 213  0.0   0.4+  

050520 557  0.7+  0.2+    050609 J76  0.6+  0.8-    050617 J78  0.2-  0.0   

050520 557  0.3-  0.3-    050609 J76  0.2-  0.0     050617 213  0.2-  0.4+  

050520 557  0.1-  0.8+    050609 J76  0.4+  0.7-    050617 213  0.3-  0.4+  

050520 557  0.2-  0.0     050609 J76  0.5+  0.3-    050617 213  0.2-  0.5+  

050520 557  0.1+  0.1-    050609 J76  0.2-  0.7-    050617 J87  0.5-  0.4-  

050527 118  1.2-  2.2+    050609 J97 (1.1+  3.8-)   050617 J87  0.2+  0.6-  

050527 118  0.7-  0.1-    050610 442  0.5-  0.0     050617 J87  0.5-  1.5-  

050527 349  1.3-  0.3+    050610 213  0.6+  0.6-    050617 442  1.8+  0.7+  

050527 349  1.2-  0.9+    050610 213  1.6+  0.0     050618 349  0.5-  1.2-  

050527 349  1.9-  1.3+    050610 213  0.5+  0.2-    050618 349  0.9-  0.7-  

050527 104  0.6+  2.3-    050612 J78  1.4-  0.5-    050618 349  0.9-  0.2-  

050527 104  0.0   1.0-    050612 J78  0.7+  0.1+    050618 232  0.1-  0.0   

050527 104  0.7+  0.8+    050612 J78  0.1-  1.1-    050618 J76  0.3-  0.2+  

050527 104  1.6-  1.3+    050612 213  0.4+  0.3+    050618 J76  0.1-  0.1+  

050527 118  0.2+  1.5-    050612 213  0.5+  0.1+    050618 232  0.4-  0.5+  

050527 118  1.2+  1.1-    050612 213  0.3+  0.1-    050618 J76  0.1+  0.7+  

050527 118  1.3+  0.5-    050612 J76  0.8-  0.3+    050618 232  0.2+  0.5-  

050528 461  1.6+  1.8-    050612 J76 (2.0+  4.1+)   050618 147  2.3-  0.8-  

050528 048 (3.1-  2.8+)   050612 J76 (0.7-  2.7+)   050618 147  2.2-  1.2-  

050528 461  1.3+  1.4-    050612 J76  0.9-  2.3+    050618 147 (4.3+  3.1-) 

050528 048 (2.6-  2.5+)   050612 J76  0.6-  0.0     050618 147 (1.5+  6.8+) 

050528 461  1.3+  1.5-    050612 J76  0.4-  2.4+    050619 J78  0.6+  0.7+  

050528 048 (2.7-  2.8+)   050612 J76  0.2-  0.1+    050619 J78  0.6+  0.5+  

050528 048 (2.6-  0.3-)   050612 J76  0.2-  2.4+    050619 J78  0.7+  0.6+  

050528 118  1.0+  1.5-    050613 340  2.0+  0.6+    050619 J76  1.1+  0.0   

050528 118 (2.2+  3.2-)   050613 340  0.9+  0.2+    050619 J76  0.8+  0.6+  

050528 118  0.6-  1.6-    050613 340  1.0+  0.9+    050619 J76  1.3+  0.5+  

050528 A10  0.5-  1.3+    050613 340  0.7+  0.2-    050620 147  1.5+  1.6+  

050529 A13 (0.2+  3.2+)   050613 J97  0.2+  1.5-    050620 147  1.7-  1.4+  

050529 118  0.1-  1.2-    050613 J76  1.0+  2.1+    050620 147  1.7-  0.4-  

050529 A13 (0.7+  4.6+)   050613 J76  0.1+  0.6-    050620 147  2.2-  1.0-  

050529 118  0.2-  0.9-    050613 J76  1.1+  2.4+    050621 J76  1.3+  1.1+  

050531 360  0.1-  0.3-    050613 J76  1.1+  1.9+                            

050531 360  0.7-  0.9-    050613 J76  0.4-  1.0-                            



NAKANO

         **** Don't distribute anyone except personal use only ****

                (C) Copyright 2006 OAA/ComputingSection

write mail from CFAD0::NAKANO on 2006-11-04 04:16:10(JST).

 



    C/2005 K2 - B (LINEAR)

Epoch 2005 July 9.0 TT = JDT 2453560.5  

T 2005 July 5.36568 TT                                  Nakano

q   0.5449179            (2000.0)            P               Q

z  -0.0034339      Peri.  216.46993     -0.65086441     +0.29515543

 +/-0.0004168      Node    45.66554     -0.21685209     +0.81067195

e   1.0018712      Incl.  102.06601     -0.72756490     -0.50566220

From 48 observations 2005 May 19-June 19, mean residual 1".07.

   (1/a)org.= -0.002910, (1/a)fut.= -0.003372 (+/-0.000417), Q= 4.

Residuals in seconds of arc 

2005/                     050613 J76 (3.8+  0.5-)   050617 J78  0.6-  0.0   

050519 704 (2.5-  1.7+)   050613 J76 (3.7+  2.7-)   050617 213  0.4+  0.4+  

050519 704  1.5-  0.2+    050613 J76 (3.2-  1.4-)   050617 J78  1.0-  0.4+  

050519 704 (3.5-  1.3-)   050613 J76  0.5+  0.8+    050617 213  0.3+  0.0   

050519 704  1.8-  0.2-    050613 J76  0.2+  1.5-    050617 J87  1.5-  0.3-  

050520 H06  0.2-  1.0-    050613 J76  1.6+  1.0+    050617 J87  1.1-  0.7-  

050520 H06  0.1+  0.5+    050613 J76  0.3+  0.1+    050617 J87  1.4+  1.2-  

050520 H06 (3.4+  1.3-)   050613 J76 (0.5+  2.6+)   050618 232  1.8-  1.0-  

050520 673  1.6+  0.0     050614 J97  2.1-  1.5-    050618 J76  1.0-  0.0   

050520 673  1.1+  0.1+    050615 J76  1.4-  1.4+    050618 J76  0.9-  0.1+  

050520 673 (2.9+  4.3+)   050615 J76  0.6+  0.8+    050618 232  0.5-  1.8-  

050520 673 (3.7+  5.9+)   050615 J76  0.3+  1.4-    050618 J76  0.1+  1.1+  

050520 673 (3.8+  4.8+)   050616 J76  1.0+  0.1-    050618 232  2.1+  1.7-  

050520 673 (3.4+  5.9+)   050616 J76  0.8-  0.4-    050619 J78 (3.1-  1.9+) 

050528 461  1.2+  1.5-    050616 J76  0.5-  0.1+    050619 J78  0.0   1.5+  

050610 213  0.7+  1.1-    050616 511  0.9+  0.2+    050619 J76  1.7+  0.1+  

050612 213  0.6-  1.5-    050616 511  0.2+  1.7-    050619 J78  0.5-  1.5+  

050612 J76  0.9+  1.4+    050616 511  0.9+  0.7+    050619 J76  0.2+  0.8+  

050612 J76 (0.6-  2.9-)   050616 213  2.0-  2.1+    050619 J76  0.3+  0.8-  

050612 J76  0.5-  1.8+    050616 213  0.1+  1.8-    050621 J76 (4.6+  1.5+) 

050612 J76  1.7+  1.8+    050617 213  1.4+  0.5+                            

050612 J76 (2.4+  4.2+)   050617 213  0.2+  0.3+                            



NAKANO

         **** Don't distribute anyone except personal use only ****

                (C) Copyright 2006 OAA/ComputingSection

write mail from CFAD0::NAKANO on 2006-11-04 04:16:10(JST).

 





    C/2005 K2 - A (LINEAR)

T 2005 July 5.37591 TT                                  Nakano

q   0.5447116            (2000.0)            P               Q

z  -0.0019686      Peri.  216.52488     -0.65031079     +0.29566036

 +/-0.0001511      Node    45.68862     -0.21637212     +0.81091144

e   1.0010723      Incl.  102.05587     -0.72820257     -0.50498277

From 136 observations 2005 May 19-June 20.

NAKANO

         **** Don't distribute anyone except personal use only ****

                (C) Copyright 2005 OAA/ComputingSection

write mail from CFAD0::NAKANO on 2005-07-03 02:21:28(JST).



    C/2005 K2 - B (LINEAR)                                                

T 2005 July 5.36645 TT                                  Nakano

q   0.5449120            (2000.0)            P               Q

z  -0.0033596      Peri.  216.47238     -0.65083712     +0.29517815

 +/-0.0004341      Node    45.66673     -0.21683327     +0.81068211

e   1.0018307      Incl.  102.06539     -0.72759492     -0.50563265

From 48 observations 2005 May 19-June 19.



NAKANO

         **** Don't distribute anyone except personal use only ****

                (C) Copyright 2005 OAA/ComputingSection

write mail from CFAD0::NAKANO on 2005-07-03 02:21:28(JST).



◎C/2005 K2の軌道と予報位置です    (From YC 2474)



LINEAR彗星  C/2005 K2 (LINEAR)

  2005年5月19日の発見時,18等級であったこの彗星が5月27日にCCD全光度で

13.9等に増光していることが,上尾の門田健一氏(Ken-ichi Kadota, Ageo)に

よってとらえられた.その後,彗星は,5月31日には13.1等(中村彰正;久万),

13.3等(門田)とより明るく観測された.なお,両氏の観測は,山本速報2471

の初期軌道(観測期間1日)から27日に0o.83,31日に2o.35と大きくずれていた.

彗星は,さらに増光を続け,そのCCD全光度は,6月5日には12.5等(中村),

12.4等(江崎裕介;豊中)と観測されている.また,眼視全光度は,6月4日に

11.6等(サンジュアン;スペイン),6日に11.7等(吉田誠一;群馬),7日に

10.3等(ビーバ;仏),9.08日に9.8等,9.95日に8.9等(ゴンザレス;スペイン

)と,その増光が報告された.特に,6月9日の観測では,約1日の間に彗星は

1等級ほど増光した.なお,6月12日以後には,ほぼ,尾の方向,主核から北東

の方向,約40"の位置に光度の少し暗い分裂核が観測されている(IAUC 8540, 

IAUC 8543, ICQ Web page; cf. YC 2471).

  この増光の様子を図に示した(6月10日以後は予報値).仮に,もし,この状

況が続けば,彗星の光度は,6月末から7月上旬にかけて,計算上,5等級まで

明るくなることになる.

  OAA計算課では,2005年5月19日から6月13日までに行なわれた71個の観測か

ら次の軌道を決定した.軌道改良に使用された最終観測は,江崎氏(Y. Ezaki, 

Toyonaka)によるもので,氏のCCD全光度は10.6等であった.なお,彗星の運動

は,多少,双曲線ぎみ(e= 1.0013)にある.

                                        。

   T = 2005 July 5.3937 TT     ω = 216.5783

